[[{"header":{"parameterUnit":"m.s-1","parameterCategory":1,"la1":30.2992,"la2":30.254,"lo1":-89.0895,"lo2":-89.0443,"dy":0.0025,"dx":0.0025,"nx":19,"ny":19,"refTime":"2026-03-10T03:00:00:Z","depth":0,"parameterNumber":2,"parameterNumberName":"U-component_of_WINDS"},"data":[0,0,0,-1.4539,-1.454,-1.456,-1.456,-1.4585,-1.4585,0,0,0,0,0,0,0,0,0,0,0,-1.4533,-1.4533,-1.4539,-1.454,-1.456,-1.456,-1.4585,-1.4585,0,0,0,0,0,0,0,0,0,0,0,-1.4533,-1.4533,-1.4533,-1.454,-1.456,-1.456,-1.4585,-1.457,0,0,0,0,0,0,0,0,0,0,-1.455,-1.4544,-1.4533,-1.4533,-1.454,-1.456,-1.456,-1.4569,-1.4571,-1.4575,0,-1.4579,0,-1.4583,-1.4587,-1.4587,0,0,0,-1.454,-1.4543,-1.4549,-1.4533,-1.454,-1.456,-1.4551,-1.457,-1.4572,-1.4577,-1.458,-1.4581,-1.4583,-1.4587,-1.4587,-1.4611,-1.4611,0,0,-1.4539,-1.4536,-1.4547,-1.455,-1.4547,-1.455,-1.4552,-1.4571,-1.4573,-1.458,-1.4581,-1.4583,-1.4587,-1.4587,-1.4611,-1.4611,0,0,0,-1.4536,-1.4536,-1.4541,-1.4549,-1.4552,-1.4551,-1.4552,-1.4573,-1.4575,-1.4581,-1.4584,-1.4587,-1.4587,-1.4611,-1.4611,-1.4613,0,0,0,-1.4535,-1.4534,-1.454,-1.4539,-1.4552,-1.4563,-1.4553,-1.4573,-1.4575,-1.4583,-1.4587,-1.4588,-1.4611,-1.4611,-1.4612,-1.4614,0,0,0,-1.4532,-1.4533,-1.4536,-1.4539,-1.4547,-1.4563,-1.4566,-1.4574,-1.4577,-1.4587,-1.4588,-1.4611,-1.4611,-1.4612,-1.4613,-1.4619,0,0,0,-1.4528,-1.4538,-1.4536,-1.4548,-1.4547,-1.4564,-1.4566,-1.4578,-1.4587,-1.4587,-1.4611,-1.4611,-1.4612,-1.4613,-1.4618,-1.4622,-1.4624,0,0,-1.4539,-1.4539,-1.4546,-1.4545,-1.4561,-1.4561,-1.4577,-1.4588,-1.4591,-1.4604,-1.4605,-1.4612,-1.4613,-1.4619,-1.4634,-1.4635,0,0,0,-1.4549,-1.4554,-1.4559,-1.4567,-1.4575,-1.4582,-1.459,-1.4594,-1.4605,-1.4597,-1.4616,-1.4617,-1.462,-1.4622,-1.4623,-1.4625,-1.4612,-1.4612,-1.4612,-1.4561,-1.4565,-1.4577,-1.4582,-1.459,-1.4598,-1.4604,-1.4611,-1.4613,-1.4617,-1.4621,-1.463,-1.4632,-1.4633,-1.4635,-1.4624,-1.4624,-1.4624,-1.4624,-1.4577,-1.4585,-1.4586,-1.4598,-1.4601,-1.4612,-1.462,-1.462,-1.463,-1.4628,-1.4631,-1.4627,-1.4634,-1.4636,-1.4624,-1.4624,-1.4624,-1.4624,-1.4624,-1.4585,-1.4589,-1.4593,-1.4604,-1.4613,-1.4618,-1.4627,-1.463,-1.4633,-1.4636,-1.464,-1.464,-1.464,-1.4638,-1.4638,-1.4638,-1.4638,-1.4638,-1.4638,-1.4591,-1.4596,-1.4603,-1.4612,-1.4616,-1.4623,-1.4631,-1.4636,-1.4642,-1.4644,-1.4644,-1.4645,-1.4634,-1.4631,-1.4638,-1.4638,-1.4638,-1.4638,-1.4638,-1.4605,-1.4602,-1.4613,-1.4618,-1.4628,-1.4635,-1.4639,-1.4649,-1.4653,-1.4657,-1.4657,-1.4649,-1.465,-1.4649,-1.4646,-1.4657,-1.4657,-1.4657,-1.4657,-1.4611,-1.4611,-1.4623,-1.463,-1.4638,-1.4642,-1.4653,-1.4659,-1.4665,-1.4668,-1.4667,-1.4664,-1.4663,-1.4664,-1.4663,-1.466,-1.4674,-1.4674,-1.4674,-1.4619,-1.462,-1.463,-1.4635,-1.4643,-1.4649,-1.466,-1.4668,-1.4674,-1.4675,-1.467,-1.4669,-1.4664,-1.4663,-1.4663,-1.4662,-1.4657,0,0]},{"header":{"parameterUnit":"m.s-1","parameterCategory":1,"la1":30.2992,"la2":30.254,"lo1":-89.0895,"lo2":-89.0443,"dy":0.0025,"dx":0.0025,"nx":19,"ny":19,"refTime":"2026-03-10T03:00:00:Z","depth":0,"parameterNumber":3,"parameterNumberName":"V-component_of_WINDS"},"data":[0,0,0,4.2908,4.2913,4.3168,4.3169,4.3478,4.3481,0,0,0,0,0,0,0,0,0,0,0,4.2821,4.2823,4.2907,4.2914,4.3168,4.3169,4.3478,4.3481,0,0,0,0,0,0,0,0,0,0,0,4.2821,4.2823,4.2825,4.2914,4.3168,4.3169,4.3477,4.3291,0,0,0,0,0,0,0,0,0,0,4.3047,4.2956,4.2822,4.2825,4.2916,4.3167,4.3169,4.3282,4.3303,4.3355,0,4.3398,0,4.3444,4.35,4.3501,0,0,0,4.2922,4.2939,4.3017,4.2825,4.2918,4.3167,4.3056,4.3294,4.3317,4.3382,4.3403,4.3415,4.3449,4.3502,4.3503,4.3779,4.3779,0,0,4.2908,4.2861,4.3001,4.3032,4.299,4.3047,4.3063,4.3308,4.3328,4.3404,4.3422,4.3454,4.3504,4.3506,4.3778,4.3779,0,0,0,4.2862,4.2851,4.2924,4.3018,4.3065,4.3054,4.3073,4.3317,4.3345,4.3426,4.3458,4.3506,4.3509,4.3777,4.3778,4.3779,0,0,0,4.2854,4.2824,4.2918,4.2892,4.3061,4.3194,4.3076,4.3328,4.3357,4.3456,4.3506,4.3512,4.3776,4.3778,4.3777,4.3787,0,0,0,4.2809,4.2819,4.2852,4.2889,4.2997,4.3191,4.3234,4.3335,4.3376,4.3501,4.3513,4.3775,4.3777,4.3775,4.3784,4.3848,0,0,0,4.2747,4.2848,4.2851,4.2977,4.2994,4.3189,4.3232,4.338,4.3487,4.3507,4.3776,4.3778,4.3774,4.3782,4.3845,4.3894,4.3909,0,0,4.2848,4.2858,4.2936,4.2947,4.3129,4.3154,4.3337,4.3479,4.3533,4.3694,4.3701,4.3777,4.3784,4.3847,4.4008,4.4019,0,0,0,4.2952,4.3008,4.3066,4.3166,4.3277,4.3374,4.3492,4.3545,4.3684,4.3606,4.3818,4.3823,4.3862,4.3888,4.3898,4.3936,4.3787,4.3787,4.3787,4.303,4.3094,4.3228,4.3323,4.3419,4.3541,4.3626,4.3719,4.3754,4.3803,4.3852,4.3942,4.397,4.3978,4.4016,4.3881,4.3881,4.3881,4.3881,4.3186,4.3276,4.3322,4.3468,4.3536,4.3659,4.3781,4.3803,4.3929,4.391,4.3947,4.3923,4.3989,4.4026,4.3882,4.3882,4.3882,4.3882,4.3882,4.3247,4.3301,4.3363,4.3516,4.3626,4.3719,4.3838,4.3895,4.3949,4.3986,4.4046,4.4046,4.4055,4.401,4.401,4.4011,4.4011,4.4011,4.4011,4.3285,4.3356,4.3449,4.3576,4.3648,4.3751,4.3875,4.3949,4.4045,4.4077,4.4078,4.411,4.3982,4.395,4.4017,4.4016,4.4015,4.4014,4.4014,4.3424,4.3402,4.3546,4.3619,4.3773,4.388,4.3951,4.4096,4.4164,4.4222,4.4247,4.4142,4.4156,4.4149,4.4123,4.423,4.423,4.4231,4.4231,4.3476,4.3489,4.365,4.3763,4.388,4.3959,4.4122,4.422,4.4317,4.4364,4.4356,4.4326,4.4315,4.4337,4.4325,4.4302,4.4453,4.4453,4.4453,4.3567,4.3593,4.3721,4.3816,4.3941,4.4048,4.4203,4.4332,4.4438,4.4464,4.4403,4.4394,4.4345,4.4326,4.4351,4.4332,4.4291,0,0]}]]